Holland, MI

8:55 PM EST on November 18, 2017 (GMT -0500)
Tulip City

Weather History for KBIV - July, 2013

Change the Weather History Date:

Friday, July 26, 2013

  Actual Average Record
Temperature  
Mean Temperature 69 °F 72 °F  
Max Temperature 78 °F 82 °F 96 °F (1955)
Min Temperature 60 °F 63 °F 46 °F (1972)
Degree Days  
Heating Degree Days 0 0  
Month to date heating degree days 0 0  
Since 1 June heating degree days 34 48  
Since 1 July heating degree days 0 0  
Cooling Degree Days 4 8  
Month to date cooling degree days 266 202  
Year to date cooling degree days 520 390  
Since 1 June cooling degree days 430 348  
Growing Degree Days 19 (Base 50)    
Moisture  
Dew Point 59 °F    
Average Humidity 69    
Maximum Humidity 87    
Minimum Humidity 50    
Precipitation  
Precipitation 0.34 in 0.08 in 1.53 in (1960)
Month to date precipitation 1.98 2.37  
Year to date precipitation 25.14 19.18  
Sea Level Pressure  
Sea Level Pressure 29.97 in    
Wind  
Wind Speed 7 mph (South)    
Max Wind Speed 18 mph    
Max Gust Speed 24 mph    
Visibility 8 miles    
Events Rain    
T = Trace of Precipitation, MM = Missing Value Source: NWS Daily Summary

Daily Weather History Graph

Daily Weather History Graph

Search for Another Location

Airport or City:

Trip Planner

Search our weather history database for the weather conditions in past years. The results will help you decide how hot, cold, wet, or windy it might be!

Date:

Astronomy

Jul. 26, 2013 Rise Set
Actual Time 6:30 AM EDT 9:11 PM EDT
Civil Twilight 5:57 AM EDT 9:43 PM EDT
Nautical Twilight 5:16 AM EDT 10:24 PM EDT
Astronomical Twilight 4:29 AM EDT 11:11 PM EDT
Moon 11:16 PM EDT (7/26) 11:13 AM EDT (7/26)
Length of Visible Light 15h 46m
Length of Day
14h 41m
Waning Gibbous, 80% of the Moon is Illuminated
Jul 26
Waning Gibbous
Jul 29
Last Quarter
Aug 6
New
Aug 14
First Quarter
Aug 20
Full

Hourly Weather History & Observations

Time (EDT) Temp. Dew Point Humidity Pressure Visibility Wind Dir Wind Speed Gust Speed Precip Events Conditions
12:53 AM 62.1 °F 53.1 °F 72% 30.05 in 10.0 mi SSE 4.6 mph - N/A   Clear
1:53 AM 62.1 °F 48.9 °F 62% 30.04 in 10.0 mi SSE 5.8 mph - N/A   Clear
2:53 AM 61.0 °F 51.1 °F 70% 30.03 in 10.0 mi SSE 5.8 mph - N/A   Clear
3:53 AM 63.0 °F 52.0 °F 67% 30.04 in 10.0 mi SSE 5.8 mph - N/A   Overcast
4:53 AM 64.9 °F 53.1 °F 65% 30.03 in 10.0 mi South 5.8 mph - N/A   Overcast
5:53 AM 64.9 °F 54.0 °F 68% 30.01 in 10.0 mi South 5.8 mph - N/A   Overcast
6:53 AM 63.0 °F 55.0 °F 75% 30.03 in 10.0 mi SSE 4.6 mph - N/A   Clear
7:53 AM 66.9 °F 55.9 °F 68% 30.02 in 10.0 mi South 9.2 mph - N/A   Scattered Clouds
8:53 AM 69.1 °F 57.0 °F 65% 30.03 in 10.0 mi South 6.9 mph - N/A   Mostly Cloudy
9:53 AM 69.1 °F 57.9 °F 68% 30.03 in 10.0 mi South 8.1 mph - N/A   Overcast
10:53 AM 72.0 °F 59.0 °F 64% 30.03 in 10.0 mi SSW 6.9 mph - N/A   Mostly Cloudy
11:53 AM 73.9 °F 57.9 °F 57% 30.03 in 10.0 mi SSW 13.8 mph - N/A   Overcast
12:53 PM 73.0 °F 57.9 °F 59% 30.02 in 10.0 mi SSW 12.7 mph - N/A   Overcast
1:53 PM 77.0 °F 57.9 °F 52% 29.99 in 10.0 mi South 13.8 mph - N/A   Scattered Clouds
2:53 PM 75.0 °F 55.9 °F 51% 29.99 in 10.0 mi SSW 17.3 mph - N/A   Overcast
3:53 PM 70.0 °F 61.0 °F 73% 29.98 in 9.0 mi SW 10.4 mph - 0.02 in Rain Light Rain
4:53 PM 69.1 °F 62.1 °F 78% 29.96 in 10.0 mi SSW 5.8 mph - 0.05 in Rain Light Rain
5:53 PM 69.1 °F 63.0 °F 81% 29.94 in 8.0 mi SSW 3.5 mph - 0.02 in Rain Light Rain
6:53 PM 68.0 °F 63.0 °F 84% 29.93 in 2.0 mi Calm Calm - 0.05 in Rain Rain
6:57 PM 68.0 °F 62.6 °F 83% 29.93 in 1.2 mi Calm Calm - 0.04 in Rain Heavy Rain
7:03 PM 66.2 °F 62.6 °F 88% 29.93 in 2.0 mi SSE 5.8 mph - 0.05 in Rain Light Rain
7:14 PM 68.0 °F 62.6 °F 83% 29.93 in 4.0 mi South 3.5 mph - 0.08 in Rain Light Rain
7:42 PM 66.2 °F 62.6 °F 88% 29.93 in 2.0 mi Calm Calm - 0.17 in Rain Rain
7:53 PM 68.0 °F 63.0 °F 84% 29.92 in 4.0 mi Calm Calm - 0.19 in Rain Light Rain
8:53 PM 66.9 °F 64.0 °F 90% 29.91 in 5.0 mi SSE 5.8 mph - 0.00 in Rain Light Rain
9:53 PM 66.9 °F 61.0 °F 81% 29.90 in 10.0 mi South 5.8 mph - 0.01 in   Overcast
10:10 PM 66.2 °F 62.6 °F 88% 29.91 in 10.0 mi South 3.5 mph - N/A   Overcast
10:53 PM 66.0 °F 62.1 °F 87% 29.91 in 10.0 mi SSE 4.6 mph - N/A   Overcast
11:40 PM 66.2 °F 62.6 °F 88% 29.89 in 10.0 mi South 3.5 mph - N/A   Mostly Cloudy
11:53 PM 64.9 °F 61.0 °F 87% 29.88 in 10.0 mi South 4.6 mph - N/A   Mostly Cloudy